Okean 1-7 - Orbit

View from above orbital plane
View from above orbital plane
View from above satellite
View from above satellite

Ground track
Ground track

The orbit data is extracted from the following two-line orbital elements,

1 23317U 94066A   13145.15585819  .00001199  00000-0  13924-3 0  2273
2 23317 082.5402 071.3508 0019556 304.2082 191.2875 14.84455299  5524
Epoch (UTC): 25 May 2013 03:44:26
Eccentricity: 0.0019556
inclination: 82.5402°
perigee height: 601 km
apogee height: 629 km
right ascension of ascending node: 71.3508°
argument of perigee: 304.2082°
revolutions per day: 14.84455299
mean anomaly at epoch: 191.2875°
orbit number at epoch: 552

The dashed part of the orbit path shows where the satellite is in the earth's shadow,  

Developed and maintained by Chris Peat, Heavens-Above GmbH. Please read the updated FAQ before sending e-mail. Imprint. DLR